This is the latest recevied weather packets stored in our database for station/object CE2LOH-10. If no packets are shown the sender has not sent any weather packets the latest 10 day(s).
| Time | Temp. | Humidity | Pressure | Rain* | Wind** | Luminosity | Snow |
|---|---|---|---|---|---|---|---|
| 1777778601 | 17.22° C | 41% | 995.3 hPa | - | - | - | - |
| 1777777701 | 17.78° C | 41% | 995.5 hPa | - | - | - | - |
| 1777776801 | 17.78° C | 41% | 995.7 hPa | - | - | - | - |
| 1777775900 | 18.33° C | 41% | 995.9 hPa | - | - | - | - |
| 1777775000 | 18.33° C | 40% | 995.9 hPa | - | - | - | - |
| 1777774100 | 18.33° C | 40% | 995.7 hPa | - | - | - | - |
| 1777773200 | 18.89° C | 40% | 995.6 hPa | - | - | - | - |
| 1777771400 | 18.89° C | 39% | 995.3 hPa | - | - | - | - |
| 1777770500 | 19.44° C | 40% | 995.2 hPa | - | - | - | - |
| 1777767799 | 20° C | 39% | 994.8 hPa | - | - | - | - |
| 1777766933 | 20.56° C | 38% | 994.9 hPa | - | - | - | - |
| 1777761532 | 22.22° C | 38% | 994.6 hPa | - | - | - | - |
| 1777759732 | 22.78° C | 38% | 993.6 hPa | - | - | - | - |
| 1777758831 | 23.33° C | 38% | 993.6 hPa | - | - | - | - |
| 1777757931 | 23.33° C | 38% | 993.5 hPa | - | - | - | - |
| 1777757031 | 23.89° C | 37% | 993.4 hPa | - | - | - | - |
| 1777756131 | 24.44° C | 38% | 993 hPa | - | - | - | - |
| 1777755231 | 24.44° C | 37% | 992.7 hPa | - | - | - | - |
| 1777754331 | 24.44° C | 37% | 992.6 hPa | - | - | - | - |
| 1777753431 | 24.44° C | 37% | 992.5 hPa | - | - | - | - |
| 1777752531 | 25° C | 38% | 992.2 hPa | - | - | - | - |
| 1777750730 | 24.44° C | 39% | 991.8 hPa | - | - | - | - |
| 1777748930 | 23.89° C | 40% | 991.7 hPa | - | - | - | - |
| 1777748030 | 23.89° C | 40% | 992 hPa | - | - | - | - |
| 1777747130 | 23.89° C | 40% | 992 hPa | - | - | - | - |
* Rain since midnight (hover to see other rain measurements)
** Current wind speed in m/s (hover to see current wind gust speed)